Date_and_time,latitude,longitude,wind_speed,RelWindDirFrom,WindDirFrom,air_pressure,air_temperature,relative_humidity,Temp,platform_speed_wrt_ground,air_pressure_at_mean_sea_level,platform_orientation
2018-06-03 23:50,50.6304383333333,-96.9807683333333,10.7,19.4,285,985.89,18.8,41,15.87,0.0,1011.93,119.2
2018-06-04 00:00,50.6304383333333,-96.9807683333333,12.0,17.9,299,985.73,19.1,40,15.85,0.0,1011.72,270.0
2018-06-04 00:10,50.6304666666667,-96.98082,10.4,15.8,297,985.79,19.0,41,15.85,0.0,1011.80,270.0
2018-06-04 00:20,50.6304466666667,-96.9807716666667,8.8,14.7,300,985.81,19.2,40,15.85,0.0,1011.79,270.0
2018-06-04 00:30,50.63044,-96.9807683333333,9.3,14.4,298,985.76,19.3,40,15.84,0.0,1011.72,270.0
2018-06-04 00:40,50.630435,-96.9807616666667,9.4,14.9,304,985.63,19.2,41,15.84,0.0,1011.61,270.0
2018-06-04 00:50,50.6304433333333,-96.9807516666667,7.9,13.6,296,985.67,19.2,42,15.83,0.0,1011.63,270.0
2018-06-04 01:00,50.6304416666667,-96.9807533333333,7.4,13.9,295,985.75,19.1,42,15.83,0.0,1011.73,90.0
2018-06-04 01:10,50.63044,-96.9807533333333,6.0,9.6,297,985.77,19.1,43,15.81,0.0,1011.75,90.0
2018-06-04 01:20,50.63043,-96.98078,5.9,10.5,295,985.78,19.0,44,15.80,0.0,1011.77,90.0
2018-06-04 01:30,50.6304266666667,-96.980765,5.4,8.3,294,985.83,18.7,45,15.79,0.0,1011.83,90.0
2018-06-04 01:40,50.6304183333333,-96.9807733333333,4.5,7.5,306,985.96,18.5,46,15.78,0.0,1011.97,90.0
2018-06-04 01:50,50.63043,-96.9807683333333,7.3,12.3,46,986.10,16.8,60,15.78,0.0,1012.17,90.0
2018-06-04 02:00,50.630435,-96.980755,10.4,12.3,69,986.11,15.5,69,15.77,0.0,1012.26,0.0
2018-06-04 02:10,50.6304416666667,-96.9807516666667,9.9,11.5,68,986.14,15.1,70,15.77,0.0,1012.30,0.0
2018-06-04 02:20,50.6304416666667,-96.9807533333333,8.6,10.2,73,986.22,15.1,70,15.76,0.0,1012.37,0.0
2018-06-04 02:30,50.63044,-96.980755,8.2,9.8,75,986.21,15.1,69,15.76,0.0,1012.36,0.0
2018-06-04 02:40,50.63044,-96.980755,7.2,8.6,78,986.32,14.9,70,15.76,0.0,1012.49,0.0
2018-06-04 02:50,50.63044,-96.9807566666667,5.3,6.5,81,986.39,14.9,70,15.76,0.0,1012.56,0.0
2018-06-04 03:00,50.6304416666667,-96.9807566666667,4.7,6.2,71,986.45,14.8,70,15.78,0.0,1012.63,90.0
2018-06-04 03:10,50.6304416666667,-96.9807566666667,5.8,6.8,61,986.57,14.8,69,15.80,0.0,1012.76,90.0
2018-06-04 03:20,50.630445,-96.9807333333333,5.3,6.8,62,986.57,14.7,69,15.83,0.0,1012.78,90.0
2018-06-04 03:30,50.6304266666667,-96.9807816666667,5.6,7.7,44,986.59,14.7,70,15.84,0.0,1012.80,90.0
2018-06-04 03:40,50.6304333333333,-96.98076,6.3,7.8,45,986.63,14.7,70,15.82,0.0,1012.92,90.0
2018-06-04 03:50,50.630455,-96.9807583333333,8.0,10.6,37,986.66,14.4,70,15.82,0.0,1013.02,90.0
2018-06-04 04:00,50.63044,-96.9807533333333,8.0,9.0,31,986.75,13.9,78,15.80,0.0,1013.16,90.0
2018-06-04 04:10,50.6304366666667,-96.9807483333333,8.0,9.3,33,986.75,13.5,81,15.79,0.0,1013.18,90.0
2018-06-04 04:20,50.630435,-96.9807483333333,7.8,9.6,33,986.74,13.3,79,15.77,0.0,1013.18,90.0
2018-06-04 04:30,50.6304366666667,-96.9807483333333,8.2,9.4,36,986.84,13.3,78,15.75,0.0,1013.29,90.0
2018-06-04 04:40,50.63044,-96.9807516666667,9.1,11.2,35,986.83,13.4,81,15.73,0.0,1013.28,90.0
2018-06-04 04:50,50.6304433333333,-96.98075,9.8,12.6,34,986.89,13.3,83,15.71,0.0,1013.35,90.0
2018-06-04 05:00,50.6304466666667,-96.9807583333333,11.1,13.3,32,986.88,13.3,83,15.69,0.0,1013.33,360.0
2018-06-04 05:10,50.630445,-96.9807533333333,10.9,12.6,23,986.89,13.3,83,15.67,0.0,1013.36,360.0
2018-06-04 05:20,50.6304433333333,-96.9807566666667,11.8,13.7,16,986.96,13.3,83,15.68,0.0,1013.43,360.0
2018-06-04 05:30,50.6304433333333,-96.9807566666667,12.6,14.9,14,986.94,13.3,78,15.71,0.0,1013.40,360.0
2018-06-04 05:40,50.6304433333333,-96.980755,13.3,15.6,14,986.94,13.2,77,15.71,0.0,1013.42,360.0
2018-06-04 05:50,50.6304433333333,-96.980755,11.8,14.4,17,987.00,13.1,81,15.69,0.0,1013.51,360.0
2018-06-04 06:00,50.6304166666667,-96.9807516666667,11.9,14.2,16,987.11,12.9,81,15.67,0.0,1013.65,166.7
2018-06-04 06:10,50.63044,-96.98076,11.1,13.9,10,987.18,12.8,83,15.66,0.0,1013.74,166.7
2018-06-04 06:20,50.630445,-96.980765,10.3,12.6,5,987.24,12.5,81,15.61,0.0,1013.81,166.7
2018-06-04 06:30,50.6304266666667,-96.9807516666667,10.0,12.7,4,987.26,12.3,78,15.56,0.0,1013.84,166.7
2018-06-04 06:40,50.6304333333333,-96.9807616666667,5.8,8.5,341,987.39,11.8,78,15.56,0.0,1014.00,166.7
2018-06-04 06:50,50.6304366666667,-96.9807633333333,5.0,6.7,331,987.43,10.8,83,15.55,0.0,1014.09,166.7
2018-06-04 07:00,50.6304366666667,-96.980765,4.5,6.0,333,987.54,10.2,85,15.54,0.0,1014.23,234.7
2018-06-04 07:10,50.6304366666667,-96.980765,4.9,6.6,330,987.58,9.9,86,15.53,0.0,1014.29,234.7
2018-06-04 07:20,50.6304366666667,-96.9807633333333,4.9,7.0,330,987.66,9.6,86,15.52,0.0,1014.38,234.7
2018-06-04 07:30,50.6304383333333,-96.9807616666667,4.6,6.3,320,987.67,9.5,85,15.50,0.0,1014.40,234.7
2018-06-04 07:40,50.6304383333333,-96.9807616666667,4.9,6.8,324,987.71,9.3,85,15.49,0.0,1014.46,234.7
2018-06-04 07:50,50.63044,-96.9807616666667,4.9,6.3,322,987.77,9.2,85,15.49,0.0,1014.53,234.7
2018-06-04 08:00,50.6304383333333,-96.9807616666667,5.0,6.3,316,987.87,9.0,86,15.47,0.0,1014.65,142.0
2018-06-04 08:10,50.63044,-96.9807616666667,4.7,6.4,329,987.88,8.8,87,15.46,0.0,1014.69,142.0
2018-06-04 08:20,50.63042,-96.9807533333333,4.7,6.5,330,987.96,8.8,87,15.46,0.0,1014.78,142.0
2018-06-04 08:30,50.6304583333333,-96.9807583333333,4.6,6.3,334,987.95,8.8,87,15.45,0.0,1014.79,142.0
2018-06-04 08:40,50.630445,-96.980745,4.2,5.6,330,987.94,8.8,87,15.44,0.0,1014.83,142.0
2018-06-04 08:50,50.63044,-96.9807666666667,4.2,5.4,323,987.94,8.6,85,15.43,0.0,1014.87,142.0
2018-06-04 09:00,50.6304383333333,-96.98075,4.7,6.3,321,987.93,8.4,84,15.42,0.0,1014.88,360.0
2018-06-04 09:10,50.6304416666667,-96.9807533333333,4.6,6.7,319,987.96,8.4,82,15.42,0.0,1014.93,360.0
2018-06-04 09:20,50.6304416666667,-96.98075,4.9,6.2,317,987.97,8.3,82,15.41,0.0,1014.95,360.0
2018-06-04 09:30,50.6304416666667,-96.9807516666667,5.6,7.2,321,987.99,8.1,83,15.39,0.0,1014.99,360.0
2018-06-04 09:40,50.6304433333333,-96.9807533333333,5.6,7.3,320,988.00,8.0,82,15.38,0.0,1015.00,360.0
2018-06-04 09:50,50.6304416666667,-96.980755,6.4,8.9,320,987.98,7.9,82,15.37,0.0,1015.01,360.0
2018-06-04 10:00,50.6304416666667,-96.980755,6.1,8.3,318,988.07,7.7,81,15.36,0.0,1015.11,48.3
2018-06-04 10:10,50.63044,-96.980755,5.6,7.2,316,988.07,7.5,81,15.33,0.0,1015.12,48.3
2018-06-04 10:20,50.63044,-96.980755,5.7,7.4,314,988.08,7.5,79,15.32,0.0,1015.13,48.3
2018-06-04 10:30,50.6304383333333,-96.9807566666667,5.9,7.9,316,988.10,7.6,78,15.31,0.0,1015.15,48.3
2018-06-04 10:40,50.6304383333333,-96.9807566666667,5.9,7.7,324,988.12,7.6,78,15.32,0.0,1015.18,48.3
2018-06-04 10:50,50.6304383333333,-96.9807566666667,5.5,7.7,332,988.18,7.7,78,15.32,0.0,1015.24,48.3
2018-06-04 11:00,50.6304383333333,-96.9807566666667,5.1,7.3,329,988.25,7.8,77,15.30,0.0,1015.31,0.0
2018-06-04 11:10,50.6304383333333,-96.9807566666667,5.4,6.9,314,988.41,7.7,74,15.29,0.0,1015.49,0.0
2018-06-04 11:20,50.6304383333333,-96.9807566666667,5.3,7.0,307,988.56,7.8,74,15.28,0.0,1015.65,0.0
2018-06-04 11:30,50.6304383333333,-96.9807566666667,4.4,6.5,298,988.66,7.9,74,15.26,0.0,1015.74,0.0
2018-06-04 11:40,50.6304383333333,-96.9807566666667,4.6,7.6,293,988.74,7.7,76,15.24,0.0,1015.84,0.0
2018-06-04 11:50,50.6304166666667,-96.9807666666667,4.8,6.2,286,988.80,7.6,77,15.24,0.0,1015.92,0.0
2018-06-04 12:00,50.6304266666667,-96.9807616666667,5.1,8.1,304,988.75,7.8,77,15.23,0.0,1015.87,360.0
2018-06-04 12:10,50.6304316666667,-96.9807616666667,6.0,8.2,314,988.71,8.1,75,15.21,0.0,1015.82,360.0
2018-06-04 12:20,50.6304333333333,-96.9807633333333,5.5,7.6,313,988.81,8.4,75,15.20,0.0,1015.90,360.0
2018-06-04 12:30,50.630435,-96.9807616666667,5.5,7.9,321,988.79,8.9,72,15.18,0.0,1015.85,360.0
2018-06-04 12:40,50.630435,-96.980765,6.1,8.6,329,988.70,9.6,69,15.18,0.0,1015.72,360.0
2018-06-04 12:50,50.6304366666667,-96.980765,6.9,9.4,339,988.69,10.0,67,15.18,0.0,1015.69,360.0
2018-06-04 13:00,50.6304366666667,-96.9807633333333,6.4,9.1,345,988.66,10.5,65,15.18,0.0,1015.64,228.3
2018-06-04 13:10,50.6304366666667,-96.9807633333333,5.6,7.8,341,988.70,10.7,63,15.18,0.0,1015.67,228.3
2018-06-04 13:20,50.6302266666667,-96.9808566666667,7.2,10.5,354,988.65,11.0,60,15.17,0.1,1015.59,228.3
2018-06-04 13:30,50.62733,-96.9676766666667,8.9,12.7,15,988.74,11.4,58,15.39,3.2,1015.68,228.3
2018-06-04 13:40,50.6284216666667,-96.9238683333333,15.4,18.2,37,988.70,10.9,62,15.80,10.0,1015.67,228.3
2018-06-04 13:50,50.6331933333333,-96.8782733333333,16.3,23.3,40,988.43,10.8,65,15.33,10.6,1015.38,228.3
2018-06-04 14:00,50.66139,-96.8873866666667,22.2,25.2,5,987.98,10.8,64,14.65,10.4,1014.91,62.4
2018-06-04 14:10,50.6914983333333,-96.8912533333333,23.0,25.1,6,987.85,10.6,65,14.83,10.9,1014.76,62.4
2018-06-04 14:20,50.7215133333333,-96.897325,22.3,25.3,2,987.99,10.6,65,15.20,10.9,1014.89,62.4
2018-06-04 14:30,50.7514183333333,-96.903935,22.2,24.4,3,988.01,10.6,64,15.62,10.9,1014.87,62.4
2018-06-04 14:40,50.781625,-96.9095616666667,20.3,22.7,5,988.23,10.5,65,15.41,10.9,1015.08,62.4
2018-06-04 14:50,50.81173,-96.9135216666667,19.5,21.4,6,988.23,10.5,66,14.95,10.9,1015.06,62.4
2018-06-04 15:00,50.8404766666667,-96.9199733333333,17.7,21.1,6,988.35,10.8,67,14.30,10.5,1015.16,10.4
2018-06-04 15:10,50.8673283333333,-96.9423,15.1,17.4,358,988.37,10.9,67,13.73,10.9,1015.16,10.4
2018-06-04 15:20,50.89411,-96.9649283333333,16.5,24.4,352,988.29,11.2,62,13.52,10.9,1015.04,10.4
2018-06-04 15:30,50.9093633333333,-96.9799166666667,15.6,24.1,359,988.29,12.0,56,13.99,6.5,1015.03,10.4
2018-06-04 15:40,50.9113066666667,-96.9804683333333,8.8,15.4,353,988.64,12.3,52,14.56,0.7,1015.38,10.4
2018-06-04 15:50,50.9113166666667,-96.9804466666667,9.0,15.8,359,988.57,12.8,50,14.65,0.0,1015.28,10.4
2018-06-04 16:00,50.91132,-96.9804466666667,9.4,14.9,344,988.35,12.7,48,14.68,0.0,1015.07,360.0
2018-06-04 16:10,50.91132,-96.9804383333333,8.9,13.8,1,988.34,12.7,49,14.71,0.0,1015.06,360.0
2018-06-04 16:20,50.91132,-96.980435,8.5,16.6,9,988.31,12.8,50,14.75,0.0,1015.03,360.0
2018-06-04 16:30,50.9113166666667,-96.9804316666667,9.7,16.0,34,988.35,12.8,51,14.76,0.0,1015.07,360.0
2018-06-04 16:40,50.911315,-96.980435,5.1,14.1,31,988.59,12.5,55,14.75,0.0,1015.33,360.0
2018-06-04 16:50,50.9113583333333,-96.9815216666667,11.6,17.9,41,988.45,12.5,57,14.80,0.2,1015.18,360.0
2018-06-04 17:00,50.911415,-96.9817566666667,4.7,12.6,41,988.70,13.0,54,14.86,0.1,1015.41,346.6
2018-06-04 17:10,50.9113983333333,-96.9817316666667,6.2,11.4,7,988.68,13.5,47,14.90,0.0,1015.34,346.6
2018-06-04 17:20,50.9114033333333,-96.9817166666667,6.3,14.0,13,988.49,14.1,45,15.11,0.0,1015.08,346.6
2018-06-04 17:30,50.9114,-96.9817283333333,6.2,12.7,7,988.45,14.0,45,15.06,0.0,1015.04,346.6
2018-06-04 17:40,50.9114166666667,-96.9817916666667,5.7,14.7,17,988.36,14.1,45,15.05,0.0,1014.92,346.6
2018-06-04 17:50,50.9114033333333,-96.9817766666667,7.3,13.6,12,988.32,14.2,43,15.01,0.0,1014.86,346.6
2018-06-04 18:00,50.91141,-96.9817783333333,7.3,13.4,43,988.21,14.3,43,15.00,0.0,1014.75,331.2
2018-06-04 18:10,50.9114133333333,-96.9818133333333,7.2,14.1,342,988.16,14.4,42,15.00,0.0,1014.70,331.2
2018-06-04 18:20,50.9114216666667,-96.9818033333333,7.4,11.9,353,988.16,14.8,40,14.99,0.0,1014.67,331.2
2018-06-04 18:30,50.9114716666667,-96.9818466666667,4.6,10.9,17,988.07,14.7,42,15.08,0.0,1014.60,331.2
2018-06-04 18:40,50.911455,-96.9818583333333,4.9,10.6,39,988.10,14.6,45,15.15,0.0,1014.64,331.2
2018-06-04 18:50,50.9114383333333,-96.98185,10.0,15.0,75,988.03,14.3,51,15.17,0.0,1014.56,331.2
2018-06-04 19:00,50.911445,-96.9818533333333,11.9,18.2,79,987.86,14.6,50,15.18,0.0,1014.35,278.3
2018-06-04 19:10,50.9114483333333,-96.9818533333333,12.9,19.4,72,987.74,14.6,50,15.17,0.0,1014.19,278.3
2018-06-04 19:20,50.9114466666667,-96.9818566666667,12.6,19.0,74,987.72,14.5,50,15.17,0.0,1014.18,278.3
2018-06-04 19:30,50.9114533333333,-96.981875,13.6,16.7,72,987.65,14.6,50,15.21,0.0,1014.10,278.3
2018-06-04 19:40,50.9114533333333,-96.981875,13.6,16.9,72,987.69,14.5,49,15.21,0.0,1014.15,278.3
2018-06-04 19:50,50.9114533333333,-96.9818766666667,14.6,20.0,72,987.63,14.6,50,15.21,0.0,1014.07,278.3
2018-06-04 20:00,50.9114516666667,-96.9818716666667,13.7,17.5,74,987.63,14.6,50,15.21,0.0,1014.06,298.9
2018-06-04 20:10,50.9114783333333,-96.9819416666667,13.6,16.0,77,987.53,14.7,49,15.30,0.0,1013.94,298.9
2018-06-04 20:20,50.91149,-96.9819916666667,14.5,17.6,77,987.41,14.7,50,15.09,0.0,1013.82,298.9
2018-06-04 20:30,50.911515,-96.9820033333333,14.1,16.6,74,987.21,14.6,48,13.77,0.0,1013.63,298.9
2018-06-04 20:40,50.911505,-96.981965,15.5,18.0,76,987.18,14.7,49,12.71,0.0,1013.60,298.9
2018-06-04 20:50,50.9115066666667,-96.9819633333333,13.2,16.7,69,987.22,14.6,47,12.65,0.0,1013.63,298.9
